OVERFALLS Weather Reports


Display with metric or nautical units.
time (UTC)temp
F
wind
direction
speed
MPH
gust
MPH
rain 1hr
in
rain 24hr
in
rain mn
in
humidity
%
barometer
mb
20260901103103 74 232 4.0 7.0 0.00 0.00 0.00 96 1017.3
20260901101552 74 223 2.0 5.0 0.00 0.00 0.00 96 1017.3
20260901100057 74 223 2.0 5.0 0.00 0.00 0.00 96 1017.3
20260901094552 74 186 2.0 5.0 0.00 0.00 0.00 96 1017.3
20260901093102 74 0 1.0 5.0 0.00 0.00 0.00 96 1017.2
20260901091557 74 186 1.0 5.0 0.00 0.00 0.00 96 1017.2
20260901090052 74 0 1.0 6.0 0.00 0.00 0.00 95 1017.2
20260901084548 74 0 1.0 4.0 0.00 0.00 0.00 95 1017.5
20260901083059 74 182 1.0 3.0 0.00 0.00 0.00 95 1017.5
20260901081555 74 182 1.0 4.0 0.00 0.00 0.00 95 1017.3
20260901080054 74 182 0.0 5.0 0.00 0.00 0.00 95 1017.5
20260901074601 74 182 2.0 5.0 0.00 0.00 0.00 94 1017.7
20260901073101 74 182 1.0 3.0 0.00 0.00 0.00 94 1017.7
20260901071553 74 182 0.0 3.0 0.00 0.00 0.00 94 1017.7
20260901070048 74 0 0.0 2.0 0.00 0.00 0.00 93 1017.6
20260901064554 74 0 0.0 1.0 0.00 0.00 0.00 93 1017.7
20260901063052 74 0 0.0 1.0 0.00 0.00 0.00 93 1017.8
20260901061550 75 182 0.0 2.0 0.00 0.00 0.00 93 1018.0
20260901060100 75 0 1.0 3.0 0.00 0.00 0.00 92 1018.0
20260901054553 75 182 1.0 3.0 0.00 0.00 0.00 92 1018.4
20260901053053 75 0 0.0 0.0 0.00 0.00 0.00 92 1018.6
20260901051604 75 0 0.0 0.0 0.00 0.00 0.00 92 1018.9
20260901050055 75 0 0.0 0.0 0.00 0.00 0.00 91 1019.0
20260901044552 75 0 0.0 0.0 0.00 0.00 0.00 92 1018.9
20260901043052 75 0 0.0 1.0 0.00 0.00 0.00 91 1018.6
20260901041551 75 182 1.0 4.0 0.00 0.00 0.00 91 1018.6
20260901040112 75 182 0.0 4.0 0.00 0.00 0.00 91 1018.5
20260901034554 75 182 0.0 5.0 0.00 0.00 0.00 91 1018.5
20260901033056 75 183 3.0 6.0 0.00 0.00 0.00 91 1018.4
20260901031558 75 182 2.0 7.0 0.00 0.00 0.00 91 1018.3
20260901030054 75 174 2.0 6.0 0.00 0.00 0.00 91 1018.3
20260901024553 75 169 0.0 4.0 0.00 0.00 0.00 91 1018.3
20260901023054 75 0 1.0 5.0 0.00 0.00 0.00 91 1018.5
20260901021556 75 184 2.0 5.0 0.00 0.00 0.00 91 1018.8
20260901020054 75 184 1.0 4.0 0.00 0.00 0.00 91 1019.0
20260901014553 75 184 0.0 4.0 0.00 0.00 0.00 91 1018.9
20260901013112 75 167 1.0 5.0 0.00 0.00 0.00 91 1018.9
20260901011556 75 0 1.0 4.0 0.00 0.00 0.00 91 1018.9
20260901004601 76 145 1.0 4.0 0.00 0.00 0.00 90 1018.8
20260901003052 75 135 2.0 5.0 0.00 0.00 0.00 90 1018.7
20260901001549 76 133 2.0 6.0 0.00 0.00 0.00 90 1018.6
20260901000057 76 140 2.0 5.0 0.00 0.00 0.00 89 1018.7
20260831234557 76 142 3.0 5.0 0.00 0.00 0.00 89 1018.9
20260831233054 76 147 1.0 5.0 0.00 0.00 0.00 89 1018.9
20260831231548 76 151 4.0 8.0 0.00 0.00 0.00 89 1019.0
20260831230056 76 0 1.0 8.0 0.00 0.00 0.00 88 1019.3
20260831224554 76 132 3.0 8.0 0.00 0.00 0.00 88 1019.3
20260831223100 76 138 4.0 7.0 0.00 0.00 0.00 87 1019.4
20260831221617 77 140 5.0 9.0 0.00 0.00 0.00 87 1019.7
20260831220053 77 134 4.0 11.0 0.00 0.00 0.00 88 1019.8
20260831214549 77 123 7.0 12.0 0.00 0.00 0.00 88 1019.8
20260831213054 77 118 7.0 13.0 0.00 0.00 0.00 87 1019.9
20260831211555 77 173 6.0 13.0 0.00 0.00 0.00 87 1019.7
20260831210050 77 115 8.0 14.0 0.00 0.00 0.00 86 1019.7
20260831204547 77 85 9.0 13.0 0.00 0.00 0.00 84 1019.5
20260831203121 78 110 8.0 12.0 0.00 0.00 0.00 84 1019.3
20260831201604 78 104 8.0 11.0 0.00 0.00 0.00 82 1019.2
20260831200137 78 120 7.0 11.0 0.00 0.00 0.00 84 1019.3
20260831194559 78 61 7.0 12.0 0.00 0.00 0.00 85 1019.4
20260831193051 78 82 8.0 14.0 0.00 0.00 0.00 86 1019.5
20260831191548 78 41 7.0 12.0 0.00 0.00 0.00 86 1019.5
20260831190100 78 77 7.0 13.0 0.00 0.00 0.00 85 1019.6
20260831184554 78 74 8.0 13.0 0.00 0.00 0.00 85 1019.7
20260831183050 77 80 8.0 12.0 0.00 0.00 0.00 86 1019.7
20260831181552 78 35 8.0 13.0 0.00 0.00 0.00 85 1019.7
20260831180058 79 134 4.0 9.0 0.00 0.00 0.00 83 1019.9
20260831174553 80 132 4.0 10.0 0.00 0.00 0.00 81 1019.7
20260831173051 79 157 4.0 10.0 0.00 0.00 0.00 81 1019.6
20260831171555 79 135 5.0 10.0 0.00 0.00 0.00 81 1019.9
20260831170055 79 144 5.0 10.0 0.00 0.00 0.00 81 1019.8
20260831164552 79 140 4.0 11.0 0.00 0.00 0.00 81 1019.7
20260831163054 80 140 5.0 9.0 0.00 0.00 0.00 81 1019.9
20260831161605 80 130 6.0 10.0 0.00 0.00 0.00 80 1020.2
20260831154622 78 103 7.0 11.0 0.00 0.00 0.00 82 1020.2
20260831153054 79 96 6.0 11.0 0.00 0.00 0.00 82 1020.4
20260831151553 79 146 6.0 11.0 0.00 0.00 0.00 82 1020.5
20260831150058 78 158 6.0 14.0 0.00 0.00 0.00 83 1020.3
20260831144555 78 130 6.0 11.0 0.00 0.00 0.00 83 1020.3
20260831143053 77 54 8.0 12.0 0.00 0.00 0.00 85 1020.3
20260831141558 79 71 6.0 11.0 0.00 0.00 0.00 82 1020.2
20260831140059 77 92 5.0 10.0 0.00 0.00 0.00 85 1020.1
20260831134557 78 60 6.0 11.0 0.00 0.00 0.00 82 1020.4
20260831133056 77 44 6.0 12.0 0.00 0.00 0.00 84 1020.2
20260831131553 77 74 7.0 11.0 0.00 0.00 0.00 88 1020.1
20260831130059 77 92 5.0 9.0 0.00 0.00 0.00 91 1020.2
20260831124556 76 48 3.0 7.0 0.00 0.00 0.00 93 1020.0
20260831123054 76 248 2.0 4.0 0.00 0.00 0.00 95 1019.8
20260831121549 75 248 1.0 3.0 0.00 0.00 0.00 96 1019.8
20260831120131 75 0 1.0 3.0 0.00 0.00 0.00 96 1019.8
20260831114554 75 0 1.0 3.0 0.00 0.00 0.00 96 1019.7
20260831113054 75 248 1.0 2.0 0.00 0.00 0.00 96 1019.6
20260831111559 75 0 0.0 2.0 0.00 0.00 0.00 96 1019.6
20260831110055 74 0 0.0 1.0 0.00 0.00 0.00 96 1019.4
20260831104602 74 0 0.0 2.0 0.00 0.00 0.00 96 1019.3